STARLINK-6339

decayed
NORAD ID: 56771 Int'l Des: 2023-078 Owner: SPXS Country: US Constellation: starlink
LEOCIRCULAR
Gruppe

Über STARLINK-6339

Beschreibung wird geladen...

Höhenverlauf

Altitude vs Time

uPlot chart will show altitude changes over time

Zweizeiliger Elementsatz

1 56771U 23078E 25068.69894064 .16481208 44904-5 27271-3 0 9991
2 56771 69.9755 129.0505 0007749 254.3157 255.2858 16.47708447 99635
Epoch: 9. März 2025 • Age: 4617 hours

Aktueller Status

Position data unavailable
Startdatum 31. Mai 2023
Alter 2.2 years
Verglühungsdatum 9. März 2025
Typ internet

Technische Details

Klassifizierung Payload
Masse 305.00 kg
Trockenmasse 290.00 kg
Gesamtmasse 305.00 kg
Länge 0.20 m
Durchmesser 2.80 m
Spannweite 9.00 m
Form Box + pan
Hersteller SPXS
Bus-Typ Starlink
Phasenstatus Reentered
Besitzer/Staat SPXS/US

Große Konstellationen

Loading constellations...